N5MDT Weather Reports


time (UTC)temp
C
wind
direction
speed
KPH
gust
KPH
rain 1hr
cm
rain 24hr
cm
rain mn
cm
humidity
%
barometer
mb
20260509210820 33 113 0.0 1.6 0.00 0.00 0.00 62 1009.0
20260509205820 33 113 1.6 6.4 0.00 0.00 0.00 61 1009.2
20260509204820 33 288 0.0 3.2 0.00 0.00 0.00 62 1009.4
20260509203819 33 167 0.0 6.4 0.00 0.00 0.00 70 1009.6
20260509202820 32 193 0.0 4.8 0.00 0.00 0.00 72 1009.7
20260509201850 31 5 0.0 0.0 0.00 0.00 0.00 74 1009.7
20260509200819 31 50 0.0 0.0 0.00 0.00 0.00 75 1009.7
20260509195819 30 64 0.0 0.0 0.00 0.00 0.00 77 1009.8
20260509194819 30 64 0.0 0.0 0.00 0.00 0.00 78 1010.0
20260509193849 30 67 0.0 0.0 0.00 0.00 0.00 79 1010.2
20260509192849 30 147 0.0 0.0 0.00 0.00 0.00 75 1010.2
20260509191819 30 147 0.0 4.8 0.00 0.00 0.00 72 1010.2
20260509190819 30 138 0.0 0.0 0.00 0.00 0.00 75 1010.3
20260509185849 30 167 0.0 6.4 0.00 0.00 0.00 76 1010.6
20260509184819 29 164 0.0 6.4 0.00 0.00 0.00 76 1010.7
20260509183849 29 279 0.0 0.0 0.00 0.00 0.00 76 1010.9
20260509182819 29 169 0.0 0.0 0.00 0.00 0.00 78 1011.0
20260509181818 28 169 0.0 0.0 0.00 0.00 0.00 78 1011.0
20260509180818 28 197 0.0 0.0 0.00 0.00 0.00 80 1011.2
20260509175818 28 117 0.0 0.0 0.00 0.00 0.00 79 1011.3
20260509174848 28 311 0.0 0.0 0.00 0.00 0.00 80 1011.4
20260509173848 28 121 0.0 0.0 0.00 0.00 0.00 81 1011.3
20260509172818 27 121 0.0 6.4 0.00 0.00 0.00 81 1011.3
20260509171848 27 157 4.8 11.3 0.00 0.00 0.00 83 1011.2
20260509170818 27 156 0.0 0.0 0.00 0.00 0.00 82 1011.3
20260509165818 27 313 0.0 0.0 0.00 0.00 0.00 83 1011.4
20260509164818 27 312 0.0 0.0 0.00 0.00 0.00 83 1011.6
20260509163847 27 293 0.0 0.0 0.00 0.00 0.00 84 1011.5
20260509162817 26 278 0.0 0.0 0.00 0.00 0.00 85 1011.6
20260509161817 26 168 0.0 0.0 0.00 0.00 0.00 86 1011.7
20260509160817 26 118 0.0 0.0 0.00 0.00 0.00 86 1011.9
20260509155817 26 118 0.0 0.0 0.00 0.00 0.00 88 1011.7
20260509154817 25 102 0.0 0.0 0.00 0.00 0.00 87 1011.8
20260509153847 25 244 0.0 6.4 0.00 0.00 0.00 87 1011.7
20260509152847 25 142 0.0 8.0 0.00 0.00 0.00 89 1011.5
20260509151817 25 184 1.6 6.4 0.00 0.00 0.00 89 1011.3
20260509150817 25 173 0.0 0.0 0.00 0.00 0.00 90 1011.3
20260509145847 25 123 0.0 3.2 0.00 0.00 0.00 90 1011.5
20260509144847 25 167 0.0 4.8 0.00 0.00 0.00 90 1011.4
20260509143902 24 200 0.0 0.0 0.00 0.00 0.00 90 1011.3
20260509142902 24 179 0.0 0.0 0.00 0.00 0.00 90 1011.2
20260509141847 24 101 0.0 4.8 0.00 0.00 0.00 90 1010.9
20260509140847 24 144 0.0 6.4 0.00 0.00 0.00 91 1010.9
20260509135846 24 144 0.0 6.4 0.00 0.00 0.00 91 1011.1
20260509134846 23 177 0.0 3.2 0.00 0.00 0.00 91 1011.3
20260509133846 23 186 0.0 3.2 0.00 0.00 0.00 91 1011.4
20260509132846 23 129 0.0 3.2 0.00 0.00 0.00 91 1011.3
20260509131846 23 129 0.0 3.2 0.00 0.00 0.00 90 1011.5
20260509130846 23 129 0.0 0.0 0.00 0.00 0.00 90 1011.5
20260509125846 23 129 0.0 0.0 0.00 0.00 0.00 90 1011.4
20260509124846 23 129 0.0 0.0 0.00 0.00 0.00 90 1011.5
20260509123846 23 129 0.0 0.0 0.00 0.00 0.00 90 1011.6
20260509122845 23 129 0.0 0.0 0.00 0.00 0.00 90 1011.6
20260509121845 23 129 0.0 0.0 0.00 0.00 0.00 90 1011.3
20260509120845 23 129 0.0 0.0 0.00 0.00 0.00 90 1011.2
20260509115845 23 129 0.0 0.0 0.00 0.00 0.00 90 1011.0
20260509114845 23 129 0.0 0.0 0.00 0.00 0.00 90 1011.3
20260509113845 23 129 0.0 0.0 0.00 0.00 0.00 90 1010.8
20260509112845 23 129 0.0 0.0 0.00 0.00 0.00 90 1010.8
20260509111845 23 129 0.0 0.0 0.00 0.00 0.00 89 1010.7
20260509110845 23 129 0.0 0.0 0.00 0.00 0.00 90 1010.8
20260509105845 23 129 0.0 0.0 0.00 0.00 0.00 89 1010.5
20260509104845 23 129 0.0 0.0 0.00 0.00 0.00 89 1010.6
20260509103845 23 129 0.0 0.0 0.00 0.00 0.00 89 1010.8
20260509102845 23 129 0.0 0.0 0.00 0.00 0.00 89 1011.2
20260509101845 23 129 0.0 0.0 0.00 0.00 0.00 90 1011.0
20260509100845 23 129 0.0 0.0 0.00 0.00 0.00 90 1010.9
20260509095845 23 129 0.0 0.0 0.00 0.00 0.00 89 1010.8
20260509094845 23 129 0.0 0.0 0.00 0.00 0.00 90 1010.6
20260509093845 23 129 0.0 0.0 0.00 0.00 0.00 89 1010.6
20260509092844 23 129 0.0 0.0 0.00 0.00 0.00 89 1010.6
20260509091845 23 129 0.0 0.0 0.00 0.00 0.00 89 1010.8
20260509090844 23 129 0.0 0.0 0.00 0.00 0.00 89 1011.1
20260509085844 23 129 0.0 0.0 0.00 0.00 0.00 89 1011.2
20260509084844 23 129 0.0 0.0 0.00 0.00 0.00 89 1011.0
20260509083844 23 129 0.0 0.0 0.00 0.00 0.00 89 1011.0
20260509082844 23 129 0.0 0.0 0.00 0.00 0.00 89 1011.1
20260509081844 23 129 0.0 0.0 0.00 0.00 0.00 89 1011.0
20260509080859 23 129 0.0 0.0 0.00 0.00 0.00 89 1011.1
20260509075859 23 129 0.0 0.0 0.00 0.00 0.00 89 1011.3
20260509074844 23 129 0.0 0.0 0.00 0.00 0.00 89 1011.2
20260509073844 23 129 0.0 0.0 0.00 0.00 0.00 89 1011.2
20260509072859 23 157 0.0 8.0 0.00 0.00 0.00 89 1010.9
20260509071844 23 134 3.2 3.2 0.00 0.00 0.00 89 1010.8
20260509070844 23 111 0.0 4.8 0.00 0.00 0.00 89 1010.8
20260509065844 23 159 1.6 6.4 0.00 0.00 0.00 89 1011.0
20260509064843 23 113 3.2 6.4 0.00 0.00 0.00 88 1011.0
20260509063843 23 84 3.2 9.7 0.00 0.00 0.00 88 1010.8
20260509062843 23 174 1.6 9.7 0.00 0.00 0.00 88 1010.7
20260509061844 23 121 0.0 6.4 0.00 0.00 0.00 88 1011.0
20260509060843 23 76 6.4 6.4 0.00 0.00 0.00 88 1011.1
20260509055843 23 148 0.0 9.7 0.00 0.00 0.00 88 1011.3
20260509054843 23 95 0.0 9.7 0.00 0.00 0.00 88 1011.3
20260509053843 23 94 1.6 11.3 0.00 0.00 0.00 88 1011.4
20260509052843 23 101 3.2 11.3 0.00 0.00 0.00 88 1011.3
20260509051843 23 165 6.4 11.3 0.00 0.00 0.00 88 1011.2
20260509050843 23 125 1.6 11.3 0.00 0.00 0.00 87 1011.4
20260509045843 23 94 0.0 6.4 0.00 0.00 0.00 87 1011.5
20260509044858 23 121 0.0 9.7 0.00 0.00 0.00 87 1011.4
20260509043842 23 80 0.0 3.2 0.00 0.00 0.00 87 1011.3
20260509042829 23 131 1.6 9.7 0.00 0.00 0.00 87 1011.3
20260509041829 23 138 1.6 11.3 0.00 0.00 0.00 87 1011.3
20260509040829 23 89 1.6 11.3 0.00 0.00 0.00 86 1011.1
20260509035829 23 73 0.0 9.7 0.00 0.00 0.00 86 1011.2
20260509034829 23 101 3.2 6.4 0.00 0.00 0.00 86 1011.4
20260509033829 23 146 4.8 12.9 0.00 0.00 0.00 85 1011.4
20260509032829 23 144 3.2 11.3 0.00 0.00 0.00 85 1011.3
20260509031844 23 81 0.0 6.4 0.00 0.00 0.00 85 1011.2
20260509030829 23 107 3.2 9.7 0.00 0.00 0.00 85 1011.0
20260509025829 23 96 6.4 8.0 0.00 0.00 0.00 84 1010.7
20260509024829 23 106 0.0 9.7 0.00 0.00 0.00 84 1010.6
20260509023828 23 115 1.6 14.5 0.00 0.00 0.00 83 1010.6
20260509022828 24 163 1.6 11.3 0.00 0.00 0.00 83 1010.7
20260509021828 24 151 0.0 12.9 0.00 0.00 0.00 83 1010.7
20260509020843 24 122 6.4 12.9 0.00 0.00 0.00 82 1010.7
20260509015828 24 122 3.2 14.5 0.00 0.00 0.00 81 1010.8
20260509014844 24 114 1.6 14.5 0.00 0.00 0.00 81 1010.6
20260509013828 24 160 0.0 12.9 0.00 0.00 0.00 81 1010.5
20260509012828 25 97 3.2 6.4 0.00 0.00 0.00 81 1010.5
20260509011828 25 95 0.0 4.8 0.00 0.00 0.00 80 1010.5
20260509010828 25 92 0.0 4.8 0.00 0.00 0.00 80 1010.1
20260509005843 25 104 3.2 4.8 0.00 0.00 0.00 80 1009.9
20260509004828 25 86 0.0 14.5 0.00 0.00 0.00 79 1010.2
20260509003858 25 119 4.8 11.3 0.00 0.00 0.00 79 1010.2
20260509002828 25 106 0.0 9.7 0.00 0.00 0.00 79 1010.2
20260509001827 25 108 3.2 11.3 0.00 0.00 0.00 78 1010.4
20260509000827 25 103 1.6 9.7 0.00 0.00 0.00 78 1010.3
20260508235842 25 137 8.0 11.3 0.00 0.00 0.00 78 1010.3
20260508234827 25 94 11.3 11.3 0.00 0.00 0.00 78 1010.5
20260508233827 25 84 0.0 4.8 0.00 0.00 0.00 78 1010.6
20260508232827 26 127 4.8 9.7 0.00 0.00 0.00 78 1010.5
20260508231827 26 88 0.0 6.4 0.00 0.00 0.00 78 1010.4
20260508230827 26 84 3.2 4.8 0.00 0.00 0.00 78 1010.4
20260508225827 26 80 0.0 11.3 0.00 0.00 0.00 77 1010.4
20260508224827 26 107 0.0 9.7 0.00 0.00 0.00 77 1010.4
20260508223827 26 107 3.2 9.7 0.00 0.00 0.00 77 1010.4
20260508222826 26 118 3.2 11.3 0.00 0.00 0.00 77 1010.4
20260508221827 26 98 0.0 6.4 0.00 0.00 0.00 77 1010.4
20260508220827 26 115 1.6 8.0 0.00 0.00 0.00 77 1010.5
20260508215826 26 83 0.0 4.8 0.00 0.00 0.00 77 1010.5
20260508214826 26 139 0.0 3.2 0.00 0.00 0.00 76 1010.5
20260508213826 27 143 1.6 9.7 0.00 0.00 0.00 76 1010.5
20260508212826 27 148 4.8 9.7 0.00 0.00 0.00 76 1010.6
20260508211826 27 113 4.8 6.4 0.00 0.00 0.00 75 1010.7